Temp
5 4 4 3 4 3 4 4 4 4 4 4 4 3 4 4 3 4 4 5 4 4 4 4 5 5 6 7 7 8 7 7 9 8 10 11 12 13 14 13 12 14 12 11 11 10 11
5 4 3 4 3 3 3 4 4 4 4 4 4 4 4 4 4 4 4 4 4 4 4 5 5 5 6 7 7 8 7 7 8 8 9 11 12 12 12 12 13 11 11 12 11 11 10
4 4 3 4 3 3 3 3 4 4 4 4 4 3 3 3 3 3 3 4 4 4 4 5 4 5 5 7 6 7 7 7 7 8 9 9 10 11 11 11 10 10 12 12 11 11 11
4 3 3 4 3 4 3 4 4 4 4 4 4 4 3 3 3 3 3 4 4 4 3 4 4 5 6 5 6 7 6 7 7 7 8 8 9 9 11 9 10 12 11 14 12 11 10
4 3 3 3 3 3 3 4 4 3 3 3 3 3 3 3 3 3 3 4 4 3 3 4 4 5 5 5 6 6 7 7 7 7 8 7 8 9 9 11 11 12 12 13 13 11 11
4 3 3 3 3 3 2 3 4 3 3 3 3 3 3 3 3 3 3 4 4 3 3 3 3 4 4 3 4 7 7 7 7 7 7 8 9 11 11 12 12 13 12 11 12 12 11
4 3 3 2 3 3 4 4 3 3 3 3 3 3 3 3 3 3 3 3 3 3 3 3 2 3 3 3 5 6 6 7 8 9 9 8 10 11 11 10 10 10 11 11 12 11 10
4 4 3 2 2 3 3 3 3 3 3 3 2 2 2 2 3 2 2 2 2 2 1 1 3 2 2 3 4 5 7 8 9 9 9 9 10 9 9 9 9 10 11 11 12 11 10
4 4 4 4 2 4 4 3 3 2 3 2 2 2 1 2 2 2 3 3 2 3 1 0 1 2 3 4 5 6 7 8 10 9 10 10 9 8 9 7 9 11 11 11 9 11 13
4 3 4 4 4 3 3 4 3 3 3 2 1 2 2 2 2 1 2 2 3 4 4 1 2 2 3 4 6 5 5 7 9 9 11 9 8 8 8 7 9 10 11 10 10 9 11
5 4 4 4 4 4 4 4 3 3 4 3 2 2 2 2 2 2 2 4 3 4 6 2 3 2 3 5 6 6 6 8 9 9 9 7 8 8 9 9 10 10 10 10 10 8 8
6 4 4 4 5 4 4 4 4 3 4 4 4 3 2 3 3 3 3 3 4 5 5 3 3 4 6 7 6 6 7 7 8 9 10 9 8 9 10 10 10 10 10 9 9 9 9
6 5 4 4 5 5 5 5 5 5 5 5 4 4 4 4 4 4 4 4 6 6 3 4 5 7 8 7 7 8 9 9 9 7 6 9 9 9 9 9 10 9 8 10 10 9 11
6 7 5 5 5 5 5 5 6 7 7 6 5 4 4 4 4 4 4 6 7 5 5 5 8 9 8 9 8 8 9 9 9 10 8 8 8 10 10 10 9 8 8 9 10 12 12
7 7 6 6 5 6 6 6 7 8 9 8 6 6 4 5 6 5 5 6 6 6 8 8 9 9 8 8 9 9 10 10 10 10 9 9 7 10 10 11 10 7 8 9 8 11 9
7 8 7 6 6 6 8 8 8 9 9 9 7 6 7 7 7 6 8 6 7 8 9 9 9 11 10 10 10 10 11 10 10 10 10 10 9 11 10 10 11 11 10 8 7 9 11
7 8 8 7 6 6 8 9 9 10 10 10 9 9 8 8 8 9 7 8 8 8 8 10 10 10 11 10 11 11 11 10 11 10 10 11 12 11 11 11 12 10 10 9 10 10 10
7 7 8 8 8 7 7 9 10 11 11 10 9 8 9 10 9 9 7 8 8 9 8 10 11 11 11 11 11 12 11 11 10 10 11 11 11 11 12 12 12 12 12 12 11 12 12
7 7 7 8 8 8 8 8 9 10 11 11 10 9 10 10 9 9 9 9 9 10 9 10 11 11 10 11 11 11 11 10 9 10 11 11 11 10 11 11 11 10 12 12 11 10 11
6 7 7 8 8 8 8 8 8 10 11 10 10 8 10 8 6 11 11 10 9 8 9 10 10 11 11 11 11 11 11 10 9 10 8 9 11 10 12 12 12 12 12 11 10 10 13
6 6 7 7 8 8 8 9 9 9 10 11 9 8 7 10 10 11 11 10 10 10 10 10 11 11 11 12 12 11 11 11 9 8 9 10 10 10 10 11 12 11 11 12 10 10 11
5 6 6 7 7 8 8 9 9 9 10 10 10 10 7 9 8 11 10 10 10 10 10 11 11 10 12 12 11 11 11 11 11 10 10 10 9 9 7 11 10 10 11 12 12 12 11
6 6 6 7 7 7 7 8 9 9 9 8 8 8 8 8 10 12 11 10 10 9 8 9 10 10 11 10 9 9 9 10 10 11 11 10 10 9 10 11 11 11 13 12 12 13 12
6 6 6 6 6 7 7 7 8 8 9 8 8 7 9 12 11 11 9 9 9 9 10 9 8 10 8 7 7 6 7 8 9 9 9 10 9 9 8 10 11 13 11 11 13 13 13
6 6 6 6 6 6 6 6 7 7 8 8 8 8 8 12 10 10 9 9 9 8 8 8 9 7 7 8 11 12 11 10 10 9 9 9 10 9 9 11 14 14 10 11 11 13 14
5 5 6 6 6 5 5 5 6 6 7 7 7 8 8 9 11 7 9 8 10 11 11 9 7 7 7 10 11 11 13 11 11 9 7 9 9 9 11 10 12 14 11 10 11 12 14
5 5 5 5 6 5 5 5 5 5 5 6 6 6 7 8 8 7 10 10 7 9 10 9 8 8 7 11 11 12 12 9 11 11 8 8 8 8 9 10 12 13 10 9 11 14 12
5 5 5 4 5 5 5 5 4 4 5 5 5 5 6 6 7 8 8 7 7 7 10 8 9 7 9 10 10 12 10 11 9 12 11 11 10 9 10 10 9 10 8 11 13 10 10
5 5 5 4 5 5 5 5 5 4 4 4 5 5 5 5 6 7 7 7 7 8 8 7 8 9 9 10 10 10 10 10 11 11 10 9 12 13 12 13 11 9 13 11 9 10 9
Height
1504 1499 1491 1484 1476 1467 1458 1451 1445 1445 1448 1451 1454 1456 1457 1459 1460 1462 1464 1465 1468 1470 1472 1473 1476 1478 1481 1483 1485 1486 1489 1491 1493 1497 1499 1501 1503 1506 1505 1508 1510 1507 1512 1516 1517 1517 1517
1505 1499 1491 1483 1475 1465 1455 1443 1436 1436 1442 1446 1451 1454 1456 1458 1460 1461 1462 1465 1467 1469 1470 1472 1475 1477 1481 1485 1483 1486 1490 1494 1495 1498 1500 1502 1506 1507 1508 1508 1509 1513 1514 1514 1516 1516 1516
1505 1499 1491 1484 1476 1467 1455 1439 1433 1435 1440 1446 1450 1453 1456 1458 1459 1461 1462 1465 1467 1469 1470 1473 1474 1477 1480 1484 1485 1487 1490 1495 1497 1500 1502 1503 1505 1507 1509 1511 1514 1514 1512 1511 1514 1515 1514
1507 1500 1492 1486 1478 1471 1461 1451 1444 1443 1444 1447 1449 1453 1456 1458 1459 1461 1463 1465 1466 1468 1469 1473 1475 1477 1479 1483 1484 1490 1494 1496 1498 1500 1502 1504 1506 1508 1510 1513 1513 1511 1512 1504 1512 1514 1515
1508 1502 1495 1489 1482 1475 1468 1460 1455 1452 1449 1450 1451 1455 1457 1458 1459 1461 1463 1464 1466 1470 1471 1474 1478 1478 1483 1485 1489 1492 1498 1498 1500 1502 1503 1505 1507 1510 1512 1509 1511 1508 1507 1505 1506 1514 1513
1509 1503 1498 1492 1487 1479 1474 1468 1464 1461 1458 1458 1458 1459 1459 1460 1461 1463 1464 1464 1466 1472 1474 1477 1479 1483 1487 1488 1491 1499 1500 1501 1503 1505 1507 1508 1509 1506 1507 1506 1504 1501 1508 1510 1506 1508 1510
1511 1505 1500 1495 1491 1485 1479 1475 1471 1467 1466 1464 1464 1463 1463 1463 1464 1464 1467 1467 1473 1477 1478 1481 1481 1483 1484 1492 1498 1500 1501 1504 1506 1507 1504 1509 1507 1505 1505 1509 1509 1511 1509 1509 1506 1509 1511
1513 1508 1502 1498 1493 1489 1485 1481 1476 1474 1471 1469 1469 1467 1466 1464 1464 1466 1468 1469 1472 1477 1483 1482 1484 1487 1491 1495 1501 1503 1504 1505 1504 1504 1507 1510 1508 1513 1514 1515 1513 1512 1507 1505 1504 1509 1510
1515 1511 1505 1500 1496 1493 1491 1487 1482 1478 1476 1473 1471 1470 1469 1466 1465 1468 1469 1472 1475 1477 1484 1490 1490 1492 1495 1500 1501 1503 1504 1504 1503 1506 1506 1506 1513 1517 1515 1518 1513 1507 1504 1504 1514 1507 1498
1517 1513 1508 1503 1499 1496 1493 1490 1486 1482 1479 1476 1472 1470 1469 1468 1470 1471 1474 1476 1477 1479 1484 1498 1498 1501 1501 1502 1504 1505 1505 1508 1507 1507 1504 1511 1518 1516 1516 1519 1513 1506 1507 1509 1512 1512 1504
1518 1514 1511 1507 1502 1498 1495 1491 1488 1486 1483 1479 1476 1473 1470 1472 1473 1475 1478 1480 1479 1480 1477 1505 1502 1504 1503 1504 1505 1508 1507 1506 1504 1507 1510 1517 1517 1516 1513 1514 1511 1508 1510 1509 1508 1514 1516
1519 1516 1513 1509 1504 1499 1495 1492 1489 1487 1485 1483 1480 1479 1478 1478 1478 1478 1478 1480 1482 1479 1488 1504 1506 1505 1505 1504 1506 1507 1508 1508 1509 1508 1508 1512 1515 1514 1510 1511 1512 1511 1509 1509 1509 1513 1509
1519 1518 1514 1509 1505 1501 1497 1493 1489 1487 1485 1484 1482 1481 1482 1484 1485 1483 1482 1481 1477 1476 1506 1506 1504 1503 1501 1503 1506 1506 1505 1505 1504 1512 1517 1509 1511 1513 1514 1512 1512 1514 1515 1506 1507 1507 1493
1519 1519 1516 1512 1508 1504 1500 1495 1490 1488 1485 1484 1483 1482 1481 1482 1482 1483 1482 1482 1476 1497 1498 1505 1500 1500 1501 1502 1507 1507 1505 1503 1508 1503 1510 1510 1515 1510 1510 1508 1511 1516 1516 1508 1502 1491 1490
1521 1520 1518 1514 1511 1506 1502 1497 1493 1489 1488 1486 1485 1483 1482 1481 1481 1482 1485 1484 1493 1496 1496 1498 1498 1499 1502 1503 1502 1503 1502 1502 1505 1506 1508 1509 1515 1509 1509 1507 1510 1516 1514 1512 1513 1498 1508
1523 1520 1519 1516 1512 1508 1504 1500 1495 1491 1489 1488 1488 1486 1486 1485 1484 1483 1487 1490 1496 1499 1499 1499 1495 1494 1497 1501 1499 1499 1500 1505 1507 1508 1508 1505 1508 1504 1507 1510 1507 1506 1510 1512 1515 1506 1489
1526 1522 1520 1518 1516 1511 1507 1502 1498 1494 1491 1489 1489 1490 1491 1490 1488 1492 1495 1496 1500 1502 1502 1498 1496 1496 1496 1499 1497 1498 1502 1506 1506 1507 1508 1504 1500 1503 1504 1500 1496 1508 1506 1507 1505 1501 1497
1528 1524 1521 1519 1518 1514 1509 1505 1501 1498 1495 1493 1491 1495 1495 1492 1495 1497 1501 1502 1503 1503 1503 1501 1499 1498 1497 1500 1498 1497 1499 1502 1507 1507 1504 1505 1502 1500 1494 1496 1498 1497 1496 1496 1498 1490 1487
1529 1526 1523 1520 1518 1516 1513 1508 1504 1501 1499 1497 1497 1498 1498 1497 1501 1500 1502 1503 1504 1502 1503 1501 1501 1502 1503 1500 1500 1499 1502 1506 1508 1509 1506 1506 1501 1500 1497 1499 1499 1498 1492 1495 1496 1497 1490
1530 1527 1524 1521 1519 1518 1514 1511 1506 1504 1501 1500 1501 1504 1503 1502 1505 1501 1500 1503 1504 1507 1505 1504 1504 1503 1503 1501 1502 1503 1504 1508 1509 1509 1510 1510 1502 1501 1493 1491 1493 1491 1490 1494 1495 1493 1474
1531 1528 1525 1523 1520 1518 1516 1513 1509 1506 1503 1502 1504 1508 1507 1505 1505 1504 1503 1505 1504 1505 1506 1506 1504 1504 1503 1499 1501 1502 1504 1506 1509 1510 1510 1509 1503 1499 1496 1490 1488 1488 1487 1484 1491 1488 1484
1531 1529 1525 1523 1522 1519 1517 1515 1511 1509 1506 1504 1507 1509 1510 1508 1508 1505 1504 1506 1505 1506 1505 1503 1504 1506 1503 1502 1504 1502 1505 1503 1502 1508 1507 1508 1503 1500 1499 1484 1486 1484 1478 1477 1475 1475 1474
1532 1530 1527 1524 1522 1521 1518 1516 1514 1512 1511 1510 1510 1511 1511 1510 1509 1505 1506 1508 1507 1508 1508 1507 1506 1505 1503 1505 1506 1506 1505 1504 1503 1503 1502 1504 1503 1502 1491 1484 1481 1475 1460 1464 1464 1463 1463
1533 1531 1528 1524 1522 1520 1520 1518 1516 1514 1514 1514 1514 1512 1512 1507 1510 1509 1510 1511 1510 1509 1508 1508 1509 1507 1507 1505 1504 1503 1503 1503 1502 1502 1504 1501 1504 1505 1497 1485 1481 1454 1458 1458 1456 1455 1455
1533 1531 1529 1526 1522 1521 1518 1519 1518 1516 1515 1514 1514 1514 1515 1509 1511 1510 1511 1511 1511 1510 1509 1508 1507 1507 1506 1505 1498 1492 1493 1497 1495 1498 1500 1502 1500 1498 1496 1480 1459 1447 1457 1458 1457 1449 1446
1532 1531 1529 1527 1525 1521 1520 1517 1517 1517 1515 1514 1513 1513 1513 1514 1510 1512 1511 1512 1509 1505 1506 1507 1506 1505 1506 1503 1498 1494 1485 1488 1488 1495 1501 1500 1501 1499 1488 1489 1466 1447 1455 1458 1458 1451 1440
1533 1530 1528 1526 1524 1523 1520 1519 1517 1516 1516 1515 1514 1513 1512 1511 1507 1508 1507 1508 1509 1509 1507 1506 1506 1506 1505 1499 1495 1491 1487 1495 1488 1486 1495 1498 1497 1494 1491 1484 1459 1445 1453 1457 1456 1446 1444
1531 1530 1528 1525 1523 1522 1521 1520 1518 1516 1515 1515 1515 1514 1514 1511 1506 1503 1503 1503 1504 1505 1504 1506 1506 1505 1506 1501 1496 1490 1492 1487 1491 1480 1479 1479 1482 1482 1479 1476 1470 1449 1456 1452 1441 1443 1444
1530 1528 1527 1525 1522 1521 1519 1518 1518 1517 1515 1513 1513 1514 1513 1511 1505 1501 1499 1498 1499 1499 1500 1501 1501 1502 1500 1498 1498 1496 1492 1488 1484 1476 1477 1478 1464 1457 1458 1447 1444 1445 1441 1442 1442 1443 1444
Wind_Speed
30 33 34 34 36 36 34 30 25 22 18 10 8 4 5 5 6 6 6 6 8 10 11 7 7 7 13 11 4 11 16 14 12 11 11 9 10 6 6 6 6 3 4 2 1 3 7
32 33 34 35 36 34 38 32 23 12 12 10 8 3 4 4 4 3 4 6 6 6 7 6 6 11 14 5 12 20 16 11 11 10 10 9 6 4 7 5 2 2 3 2 2 3 6
32 32 33 35 35 37 43 36 18 6 3 7 6 2 3 4 4 4 5 5 3 8 8 8 11 13 13 9 18 13 23 11 11 9 9 8 10 3 9 5 4 2 3 3 1 1 2
31 30 33 33 36 38 40 37 30 19 8 4 4 6 2 1 3 4 5 5 4 3 11 9 8 10 6 14 18 17 11 12 12 9 11 8 10 9 4 8 3 2 2 3 6 1 2
30 28 32 32 33 34 35 36 35 33 21 7 10 10 3 3 1 6 4 4 5 6 13 6 7 7 7 21 21 18 14 17 15 12 10 8 6 5 6 4 2 4 3 5 4 3 1
29 27 28 30 30 31 30 30 29 28 26 20 13 8 6 5 5 5 2 3 9 10 8 7 10 6 14 11 16 16 17 16 10 12 9 3 2 4 4 6 3 6 3 3 5 4 7
28 29 25 27 27 29 31 30 27 24 21 17 15 10 7 5 6 7 16 23 19 10 15 8 8 12 22 19 18 15 13 13 11 6 3 2 3 5 6 1 4 4 1 3 5 2 8
26 27 22 24 25 28 29 29 26 24 21 16 12 11 9 6 7 15 14 6 8 13 13 23 21 27 25 16 13 10 8 3 6 6 6 2 4 5 7 5 4 3 1 3 4 1 5
23 25 25 23 23 27 29 30 28 25 21 18 12 6 8 6 11 14 10 20 18 17 7 11 16 11 10 11 10 7 3 5 9 7 4 3 8 8 5 2 3 4 3 3 2 10 14
18 23 22 20 20 21 24 26 27 27 25 19 18 10 2 11 17 19 22 18 20 7 3 8 6 5 6 7 6 5 3 2 2 7 8 5 7 5 3 2 3 1 2 1 5 8 4
16 19 20 18 17 18 20 23 24 23 22 19 19 19 11 10 20 15 22 24 13 3 5 6 4 5 3 3 13 3 4 1 4 7 3 2 7 5 3 3 4 4 2 5 6 6 7
17 19 19 17 16 16 18 19 20 19 18 14 13 17 18 18 18 23 16 9 4 3 7 3 2 3 7 5 4 3 3 5 4 5 4 6 1 2 3 1 4 4 5 5 2 1 3
20 18 18 17 16 18 18 18 19 18 16 10 8 7 6 9 7 14 7 3 1 6 1 4 3 6 8 5 4 2 3 4 1 3 2 1 2 2 3 2 2 2 3 2 3 3 2
21 19 17 18 18 19 21 21 20 21 20 14 8 9 6 2 7 6 2 3 8 4 7 2 6 8 5 1 3 3 3 5 2 1 3 2 2 6 8 3 3 3 2 2 3 3 5
17 17 18 18 20 19 22 23 21 19 15 14 15 18 15 6 6 5 2 6 4 4 5 8 6 7 3 3 1 2 3 3 3 1 2 3 1 3 6 2 4 4 2 3 3 5 3
16 13 17 19 20 21 20 21 19 18 15 12 11 14 19 16 13 10 5 7 8 6 7 1 3 3 6 5 4 3 2 2 2 1 2 2 2 5 5 4 6 2 2 1 2 3 4
16 12 11 16 22 22 21 20 18 18 19 12 10 6 17 15 17 13 5 7 9 5 2 3 4 5 5 4 2 3 3 3 1 3 1 3 3 4 4 7 4 4 2 4 2 3 3
16 14 10 12 18 23 24 19 16 11 19 16 10 4 10 11 6 3 6 4 2 4 3 3 4 6 5 2 3 2 4 4 3 1 2 3 3 3 3 3 2 6 8 5 3 2 5
18 15 13 10 14 18 22 23 20 12 6 10 7 7 16 8 5 7 7 6 6 4 6 4 5 6 3 2 2 4 3 3 2 1 4 2 1 2 2 3 3 6 7 7 5 3 8
19 15 14 11 12 16 18 21 21 15 5 4 2 2 7 10 2 4 6 6 4 3 5 4 3 1 0 3 2 3 3 2 3 1 2 2 3 5 5 5 3 6 7 9 7 4 6
16 18 15 14 11 13 17 18 19 18 9 5 6 4 1 1 5 7 4 1 5 3 4 3 3 5 3 2 2 3 1 3 3 2 2 3 4 5 11 14 13 14 14 11 13 14 6
14 16 14 14 13 12 14 16 16 17 11 11 3 2 3 2 1 1 1 2 3 2 1 3 4 2 3 2 2 2 2 2 1 4 2 1 3 8 5 4 6 13 16 18 18 18 16
12 14 16 13 13 12 13 14 14 16 15 9 8 5 2 2 2 4 2 2 1 2 1 0 1 2 3 1 4 7 8 6 3 2 2 2 3 4 5 2 11 13 18 20 14 13 16
12 12 13 14 11 11 12 12 13 12 13 13 12 5 3 2 2 3 1 1 1 2 3 1 3 3 1 6 8 5 8 10 10 9 8 3 4 2 5 10 4 1 1 2 13 16 16
14 13 12 13 12 11 8 11 13 12 10 8 9 7 4 2 2 2 2 4 4 3 3 3 2 2 7 6 4 4 4 4 5 7 10 10 5 4 3 6 15 10 4 5 5 8 16
15 14 13 13 15 10 10 7 9 12 11 7 4 3 2 3 2 2 2 3 4 3 3 2 3 5 3 3 3 3 2 3 3 4 2 6 8 5 2 4 5 3 5 3 2 6 3
14 14 16 14 12 14 9 7 7 9 12 9 5 4 1 4 5 5 4 1 2 2 4 2 2 2 1 2 3 3 2 1 3 3 4 4 6 12 10 6 9 4 11 8 3 2 3
13 13 15 17 14 12 12 9 7 6 9 11 7 5 5 5 8 9 9 8 5 5 3 2 3 2 2 3 2 1 3 2 3 5 4 7 5 5 6 7 9 14 8 6 3 2 1
13 14 14 17 14 13 13 11 8 7 6 8 8 8 9 9 9 10 12 15 15 13 8 5 2 1 2 3 2 3 4 3 4 4 4 5 9 3 8 5 2 18 8 12 2 1 2
Wind_Direction
7 357 354 351 349 344 341 331 308 276 264 254 259 270 255 253 246 258 227 219 211 216 218 224 218 216 191 181 151 162 146 180 161 150 158 163 171 173 168 150 153 204 158 198 267 294 296
4 2 2 1 360 2 355 341 325 284 249 254 237 245 224 243 246 220 177 176 194 196 226 220 190 187 185 187 156 152 166 161 158 146 156 158 180 174 124 126 238 121 179 226 291 304 286
7 8 9 12 14 12 9 15 27 49 164 212 201 208 234 257 225 183 177 172 153 190 199 204 170 177 187 190 148 151 156 151 150 152 149 135 140 175 137 134 126 127 263 202 250 134 319
11 14 17 20 21 20 26 35 42 51 62 150 206 194 210 233 188 177 174 178 175 139 163 173 175 171 140 172 157 154 150 147 149 134 135 115 124 110 118 121 135 215 256 247 130 254 156
12 17 16 18 22 28 32 37 43 47 54 74 120 144 158 158 164 171 164 184 198 137 147 153 168 151 121 155 159 138 154 133 128 131 123 116 109 109 136 164 160 197 225 235 174 204 258
13 18 18 21 27 32 33 37 41 44 51 63 85 123 102 124 116 147 159 167 166 138 125 94 164 91 143 110 119 144 135 127 123 127 103 81 95 150 163 186 208 168 204 249 246 142 262
15 13 21 23 27 35 39 39 40 44 50 56 62 67 73 86 118 137 126 108 104 78 67 47 136 89 105 122 122 120 123 120 128 143 125 124 214 185 134 60 101 114 177 243 276 337 303
21 12 29 29 35 39 39 40 40 42 46 47 53 62 58 48 155 145 145 96 105 123 66 55 107 102 115 122 120 122 128 144 165 124 124 159 156 102 120 127 137 164 249 297 302 296 286
23 17 24 41 41 47 45 45 42 39 34 37 40 50 57 62 138 156 139 117 122 110 80 28 47 77 75 94 105 103 92 124 127 130 164 196 126 148 148 129 209 218 274 343 321 312 264
20 20 17 31 41 41 37 32 32 31 32 31 25 42 91 131 119 130 121 122 122 112 94 13 34 54 52 124 68 68 74 123 137 126 111 99 147 172 191 234 241 306 78 337 315 336 307
14 17 13 17 22 25 24 20 17 20 25 37 49 51 86 141 119 133 128 126 157 307 77 2 39 81 85 101 139 57 48 1 129 129 206 127 172 180 211 244 199 42 343 291 296 307 322
17 8 7 7 8 9 9 12 10 9 14 28 55 82 99 133 122 139 142 158 278 242 66 80 88 178 120 79 60 104 99 85 98 109 83 104 109 258 349 229 221 356 301 291 247 251 255
26 359 1 6 8 7 10 14 17 15 16 20 39 81 129 156 156 158 209 279 271 46 200 54 81 131 95 101 86 81 124 131 145 113 47 140 174 183 231 211 180 260 313 208 218 223 313
29 15 9 3 10 10 8 10 21 30 40 36 37 52 54 149 222 234 266 248 60 59 75 156 114 115 84 48 80 96 132 120 124 278 109 161 200 202 171 272 141 177 308 321 268 317 333
36 20 3 6 4 10 8 12 25 36 51 44 56 55 40 60 97 131 259 50 61 74 114 128 139 93 87 91 96 159 81 72 55 34 141 160 211 161 199 149 208 156 225 44 324 244 253
17 29 9 359 6 5 13 16 25 41 52 61 65 59 44 54 68 71 63 97 91 89 102 220 77 299 125 120 172 220 151 91 123 189 273 122 139 208 143 224 213 296 58 261 168 279 282
13 16 16 359 358 3 5 14 20 39 53 65 49 60 13 49 62 63 46 73 90 72 14 334 91 118 92 104 94 91 75 147 181 135 300 286 270 150 194 205 167 183 232 216 278 249 294
12 11 8 1 358 359 4 11 15 39 60 68 60 56 25 52 46 64 49 14 349 63 55 62 40 58 63 75 88 102 96 48 126 166 336 29 328 252 234 116 287 287 269 263 277 151 251
14 12 7 8 3 2 4 8 16 31 93 77 65 74 52 85 77 73 95 86 51 45 37 32 49 28 16 46 54 55 53 39 158 257 360 32 203 275 203 186 190 238 219 229 281 296 248
12 13 7 9 14 5 5 3 7 18 30 27 11 61 41 56 80 54 79 53 94 47 69 64 67 87 90 65 33 122 128 142 180 239 345 323 283 266 292 334 315 247 218 215 221 253 293
8 13 12 357 5 8 7 6 2 7 16 54 29 44 29 69 72 79 89 93 80 65 45 44 87 48 10 64 75 70 58 163 188 189 225 270 276 302 280 280 275 260 260 233 222 236 259
5 8 12 10 352 1 9 11 11 10 14 63 67 13 6 38 335 113 95 63 71 117 318 79 86 35 31 75 38 11 313 215 345 176 239 187 285 328 286 270 279 262 252 244 243 239 250
6 4 9 7 3 350 357 7 13 16 23 45 40 52 15 52 318 287 41 142 146 191 184 329 190 230 208 148 297 289 268 262 247 244 219 255 294 321 269 295 303 273 249 230 232 235 233
4 360 4 8 0 359 346 353 3 12 18 26 18 14 315 94 298 355 346 327 271 300 330 210 238 264 128 301 281 261 242 246 242 235 235 249 253 274 284 302 251 38 77 287 245 239 235
0 357 355 359 6 356 1 350 351 356 2 9 7 30 1 334 334 210 250 293 281 257 259 271 273 303 325 309 278 277 183 207 209 223 217 222 254 269 271 290 280 288 192 199 194 270 235
358 353 352 351 353 360 350 355 358 352 348 335 333 352 40 308 114 258 295 322 318 314 258 245 290 299 333 290 270 282 284 17 203 181 233 209 239 254 227 275 270 64 141 126 146 266 150
354 359 350 343 346 350 349 343 352 0 358 347 314 309 233 254 227 192 219 203 189 289 284 289 324 284 205 243 260 262 267 10 267 253 174 189 215 225 235 256 277 108 146 154 224 83 155
333 344 350 346 339 342 349 338 334 344 356 359 336 319 299 282 266 244 231 197 194 210 248 52 274 170 255 261 266 255 256 157 263 245 211 211 202 203 208 226 258 144 137 210 60 102 139
314 326 339 344 338 334 339 341 326 316 330 350 352 330 304 271 263 262 249 239 241 229 198 203 252 235 252 258 239 307 251 220 277 272 191 240 218 282 214 227 79 193 235 221 246 291 268